Mitchell, SD

7:15 PM CST on November 11, 2019 (GMT -0600)
Mitchell Municipal

Weather History for KMHE - September, 2019

Change the Weather History Date:

Monday, September 16, 2019

  Actual Average Record
Temperature  
Mean Temperature 79 °F 63 °F  
Max Temperature 88 °F 76 °F 98 °F (1955)
Min Temperature 69 °F 49 °F 27 °F (1903)
Degree Days  
Heating Degree Days 0 4  
Month to date heating degree days 5 44  
Since 1 July heating degree days 14 61  
Cooling Degree Days 14 2  
Month to date cooling degree days 85 57  
Year to date cooling degree days 879 802  
Growing Degree Days 28 (Base 50)    
Moisture  
Dew Point 66 °F    
Average Humidity 70    
Maximum Humidity 84    
Minimum Humidity 55    
Precipitation  
Precipitation T in 0.07 in 1.93 in (1907)
Month to date precipitation 7.60 1.26  
Year to date precipitation 32.64 17.61  
Snow  
Snow 0.00 in - 0.00 in ()
Month to date snowfall 0.0  
Since 1 July snowfall 0.0  
Since 1 September snowfall 0.0  
Snow Depth 0.00 in    
Sea Level Pressure  
Sea Level Pressure 29.84 in    
Wind  
Wind Speed 14 mph (SSE)    
Max Wind Speed 25 mph    
Max Gust Speed 36 mph    
Visibility 10 miles    
Events Rain    
T = Trace of Precipitation, MM = Missing Value Source: NWS Daily Summary

Daily Weather History Graph

Daily Weather History Graph

Search for Another Location

Airport or City:

Astronomy

Sep. 16, 2019 Rise Set
Actual Time 7:12 AM CDT 7:40 PM CDT
Civil Twilight 6:43 AM CDT 8:09 PM CDT
Nautical Twilight 6:09 AM CDT 8:43 PM CDT
Astronomical Twilight 5:34 AM CDT 9:18 PM CDT
Moon 9:12 PM CDT (9/16) 9:23 AM CDT (9/16)
Length of Visible Light 13h 26m
Length of Day
12h 28m
Waning Gibbous, 94% of the Moon is Illuminated
Sep 16
Waning Gibbous
Sep 21
Last Quarter
Sep 28
New
Oct 5
First Quarter
Oct 13
Full

Hourly Weather History & Observations

Time (CDT) Temp. Heat Index Dew Point Humidity Pressure Visibility Wind Dir Wind Speed Gust Speed Precip Events Conditions
12:53 AM 72.0 °F - 64.0 °F 76% 29.89 in 10.0 mi SSE 11.5 mph - N/A   Clear
1:53 AM 71.1 °F - 64.0 °F 78% 29.89 in 10.0 mi SSE 12.7 mph - N/A   Clear
2:53 AM 70.0 °F - 64.0 °F 81% 29.88 in 10.0 mi SSE 10.4 mph - N/A   Clear
3:53 AM 69.1 °F - 64.0 °F 84% 29.87 in 10.0 mi SSE 11.5 mph - N/A   Clear
4:53 AM 69.1 °F - 64.9 °F 87% 29.87 in 10.0 mi SSE 11.5 mph - N/A   Clear
5:53 AM 69.1 °F - 64.9 °F 87% 29.87 in 10.0 mi SSE 11.5 mph - N/A   Clear
6:53 AM 69.1 °F - 64.9 °F 87% 29.87 in 10.0 mi SSE 10.4 mph - N/A   Clear
7:53 AM 69.1 °F - 64.9 °F 87% 29.88 in 10.0 mi SSE 10.4 mph - N/A   Clear
8:53 AM 72.0 °F - 64.9 °F 78% 29.88 in 10.0 mi SSE 12.7 mph - N/A   Clear
9:53 AM 77.0 °F - 64.9 °F 66% 29.87 in 10.0 mi South 11.5 mph - N/A   Clear
10:53 AM 78.1 °F - 64.0 °F 62% 29.87 in 10.0 mi South 10.4 mph - N/A   Clear
11:53 AM 82.0 °F 84.1 °F 66.0 °F 58% 29.86 in 10.0 mi South 12.7 mph 19.6 mph N/A   Clear
12:53 PM 82.9 °F 85.4 °F 66.9 °F 58% 29.85 in 10.0 mi South 13.8 mph - N/A   Clear
1:53 PM 86.0 °F 89.4 °F 68.0 °F 55% 29.83 in 10.0 mi South 16.1 mph 21.9 mph N/A   Clear
2:53 PM 84.9 °F 87.6 °F 66.9 °F 55% 29.83 in 10.0 mi SSE 12.7 mph 21.9 mph N/A   Clear
3:53 PM 84.9 °F 88.8 °F 69.1 °F 59% 29.82 in 10.0 mi SSE 15.0 mph 24.2 mph N/A   Clear
4:53 PM 84.9 °F 88.2 °F 68.0 °F 57% 29.81 in 10.0 mi SSE 13.8 mph - N/A   Clear
5:53 PM 82.9 °F 85.4 °F 66.9 °F 58% 29.81 in 10.0 mi SSE 15.0 mph - N/A   Clear
6:53 PM 81.0 °F 83.8 °F 68.0 °F 65% 29.80 in 10.0 mi North - - N/A   Clear
7:53 PM 80.1 °F 82.9 °F 69.1 °F 69% 29.80 in 10.0 mi SE 15.0 mph - N/A   Clear
8:53 PM 80.1 °F 82.9 °F 69.1 °F 69% 29.80 in 10.0 mi SSE 13.8 mph - N/A   Clear
9:53 PM 80.1 °F 82.7 °F 68.0 °F 67% 29.80 in 10.0 mi SSE 16.1 mph 28.8 mph N/A   Mostly Cloudy
11:53 PM 78.1 °F - 68.0 °F 71% 29.77 in 10.0 mi SSE 20.7 mph 35.7 mph 0.00 in Rain Light Rain